sat.trackr.live / text

‹ back to catalog

STARLINK-30489

NORAD 57974 · 2023-151L

PAYLOAD ACTIVE UNKNOWN

§ Identity

Operator
Country
US
Launch date
2023-09-30
Launch site
AFETR
Launch vehicle
Mass (kg)
RCS (m²)

Purposes: comms

External: N2YO · Heavens-Above · Gunter

§ Orbital elements

Epoch: 2026-09-20T20:22:11.938656Z

Period
94.27 min
Inclination
43.0037°
Eccentricity
0.0001336
Mean motion
15.27578102 rev/d
Perigee alt
482.1 km
Apogee alt
484.0 km
Semi-major
6,861.2 km
B*
1.2590e-5
RAAN
313.8260°
Arg perigee
268.6778°
Mean anomaly
91.3921°
Rev number
16,561

§ Raw data

STARLINK-304891 57974U 23151L   26263.84874929  .00000084  00000+0  12590-4 0  99962 57974  43.0037 313.8260 0001336 268.6778  91.3921 15.27578102165613

JSON: /api/v1/satellites/57974 · /tle

For live sub-satellite position, see the globe view (requires WebGL).

§ Visibility from observer

Set your observer location to see the next 7 days of passes ≥ 10°. The values pass through the URL so the page stays shareable.

No JS? Fill the form by hand. The geolocation button needs JavaScript.